LGS2352 EKCH-EBBR

Flight info

Callsign LGS2352
Flight time 1h 16m
Altitude 37000
Route NEXEN T503 GIMRU DCT MICOS DCT KEGAB DCT ABAMI Z717 NEREL T855 BATTY
Aircraft B738/M-SDE2E3FGHIRWXY/LB1

Departure

Time 2026-05-03 23:35
Airport Copenhagen Kastrup Airport (EKCH)

Arrival

Time 2026-05-04 00:51
Airport Brussels Airport (EBBR)
Time Latitude Longitude Altitude Speed Heading
2026-05-03 23:05 55.62363 12.65068 23 ft 0 kts 277°
2026-05-03 23:28 55.62361 12.65103 27 ft 4 kts 271°
2026-05-03 23:28 55.62363 12.65150 26 ft 4 kts 255°
2026-05-03 23:29 55.62373 12.65190 28 ft 4 kts 220°
2026-05-03 23:29 55.62388 12.65203 25 ft 0 kts 178°
2026-05-03 23:31 55.62355 12.65205 27 ft 11 kts 178°
2026-05-03 23:31 55.62300 12.65286 25 ft 11 kts 103°
2026-05-03 23:32 55.62297 12.65422 23 ft 11 kts 89°
2026-05-03 23:32 55.62298 12.65554 23 ft 11 kts 89°
2026-05-03 23:32 55.62299 12.65683 23 ft 10 kts 89°
2026-05-03 23:32 55.62301 12.65807 25 ft 10 kts 88°
2026-05-03 23:33 55.62308 12.65927 23 ft 10 kts 76°
2026-05-03 23:33 55.62318 12.66043 23 ft 9 kts 101°
2026-05-03 23:33 55.62274 12.66124 22 ft 9 kts 152°
2026-05-03 23:33 55.62213 12.66150 22 ft 9 kts 177°
2026-05-03 23:34 55.62153 12.66131 22 ft 9 kts 198°
2026-05-03 23:34 55.62073 12.66034 21 ft 21 kts 220°
2026-05-03 23:34 55.61818 12.65636 26 ft 83 kts 221°
2026-05-03 23:34 55.61457 12.65074 22 ft 124 kts 221°
2026-05-03 23:35 55.60690 12.63823 136 ft 166 kts 226°
2026-05-03 23:35 55.59595 12.62067 1286 ft 149 kts 219°
2026-05-03 23:35 55.58792 12.60895 2035 ft 154 kts 224°
2026-05-03 23:35 55.57919 12.59505 2377 ft 185 kts 222°
2026-05-03 23:36 55.56882 12.57928 2612 ft 209 kts 222°
2026-05-03 23:36 55.56101 12.56856 2875 ft 218 kts 216°
2026-05-03 23:36 55.54834 12.55329 3482 ft 222 kts 217°
2026-05-03 23:36 55.53575 12.53755 4275 ft 222 kts 218°
2026-05-03 23:37 55.52321 12.52180 5209 ft 219 kts 218°
2026-05-03 23:37 55.51077 12.50614 6049 ft 222 kts 217°
2026-05-03 23:37 55.49810 12.49021 6804 ft 225 kts 218°
2026-05-03 23:37 55.48536 12.47419 7615 ft 226 kts 218°
2026-05-03 23:38 55.47244 12.45797 8364 ft 229 kts 218°
2026-05-03 23:38 55.45941 12.44162 9154 ft 231 kts 218°
2026-05-03 23:38 55.44621 12.42507 9909 ft 233 kts 218°
2026-05-03 23:38 55.43291 12.40842 10625 ft 236 kts 218°
2026-05-03 23:39 55.41946 12.39157 11315 ft 239 kts 218°
2026-05-03 23:39 55.40577 12.37446 11990 ft 243 kts 218°
2026-05-03 23:39 55.39190 12.35713 12705 ft 245 kts 218°
2026-05-03 23:39 55.37808 12.33987 13405 ft 248 kts 217°
2026-05-03 23:40 55.36390 12.32219 14043 ft 252 kts 217°
2026-05-03 23:40 55.34953 12.30429 14669 ft 254 kts 217°
2026-05-03 23:40 55.33502 12.28623 15305 ft 257 kts 217°
2026-05-03 23:40 55.32033 12.26795 15941 ft 260 kts 217°
2026-05-03 23:41 55.30519 12.24911 16218 ft 277 kts 217°
2026-05-03 23:41 55.28888 12.22883 16386 ft 297 kts 217°
2026-05-03 23:41 55.27153 12.20731 16673 ft 312 kts 217°
2026-05-03 23:41 55.25366 12.18517 17246 ft 317 kts 217°
2026-05-03 23:42 55.23556 12.16281 17928 ft 319 kts 217°
2026-05-03 23:42 55.21732 12.14028 18527 ft 322 kts 217°
2026-05-03 23:42 55.19898 12.11758 19098 ft 324 kts 217°
2026-05-03 23:42 55.18070 12.09440 19697 ft 326 kts 218°
2026-05-03 23:43 55.16234 12.07082 20273 ft 328 kts 218°
2026-05-03 23:43 55.14391 12.04711 20843 ft 330 kts 218°
2026-05-03 23:43 55.12532 12.02324 21410 ft 333 kts 218°
2026-05-03 23:43 55.10662 11.99928 21977 ft 335 kts 218°
2026-05-03 23:44 55.08778 11.97518 22535 ft 337 kts 218°
2026-05-03 23:44 55.06879 11.95095 23082 ft 339 kts 218°
2026-05-03 23:44 55.04966 11.92658 23581 ft 342 kts 218°
2026-05-03 23:44 55.03040 11.90206 24029 ft 344 kts 218°
2026-05-03 23:45 55.01132 11.87782 24466 ft 346 kts 218°
2026-05-03 23:45 54.99179 11.85304 24897 ft 348 kts 217°
2026-05-03 23:45 54.97213 11.82812 25317 ft 351 kts 217°
2026-05-03 23:45 54.95236 11.80310 25742 ft 352 kts 217°
2026-05-03 23:46 54.93248 11.77796 26159 ft 355 kts 217°
2026-05-03 23:46 54.91243 11.75265 26555 ft 357 kts 217°
2026-05-03 23:46 54.89227 11.72721 26956 ft 360 kts 217°
2026-05-03 23:46 54.87196 11.70162 27360 ft 361 kts 217°
2026-05-03 23:47 54.85154 11.67592 27746 ft 364 kts 217°
2026-05-03 23:47 54.83098 11.65009 28108 ft 366 kts 217°
2026-05-03 23:47 54.81025 11.62409 28480 ft 369 kts 217°
2026-05-03 23:47 54.78940 11.59804 28852 ft 370 kts 217°
2026-05-03 23:48 54.76842 11.57192 29218 ft 372 kts 217°
2026-05-03 23:48 54.74755 11.54598 29557 ft 375 kts 217°
2026-05-03 23:48 54.72633 11.51963 29878 ft 377 kts 217°
2026-05-03 23:48 54.70500 11.49315 30199 ft 378 kts 217°
2026-05-03 23:49 54.68357 11.46660 30525 ft 379 kts 217°
2026-05-03 23:49 54.66218 11.44011 30825 ft 380 kts 217°
2026-05-03 23:49 54.64066 11.41349 31098 ft 381 kts 217°
2026-05-03 23:49 54.61906 11.38680 31388 ft 382 kts 216°
2026-05-03 23:50 54.59742 11.36009 31675 ft 383 kts 216°
2026-05-03 23:50 54.57570 11.33334 31921 ft 385 kts 216°
2026-05-03 23:50 54.55387 11.30651 32171 ft 386 kts 216°
2026-05-03 23:50 54.53193 11.27963 32430 ft 387 kts 216°
2026-05-03 23:51 54.50994 11.25277 32687 ft 388 kts 216°
2026-05-03 23:51 54.48779 11.22574 32913 ft 390 kts 216°
2026-05-03 23:51 54.46565 11.19874 33130 ft 391 kts 216°
2026-05-03 23:51 54.44338 11.17162 33367 ft 392 kts 216°
2026-05-03 23:52 54.42110 11.14451 33591 ft 394 kts 216°
2026-05-03 23:52 54.39871 11.11732 33788 ft 395 kts 216°
2026-05-03 23:52 54.37623 11.09002 33954 ft 397 kts 216°
2026-05-03 23:52 54.35361 11.06260 34119 ft 398 kts 216°
2026-05-03 23:53 54.33092 11.03514 34254 ft 400 kts 216°
2026-05-03 23:53 54.30839 11.00792 34383 ft 403 kts 216°
2026-05-03 23:53 54.28510 10.98001 34517 ft 404 kts 215°
2026-05-03 23:53 54.26192 10.95256 34667 ft 406 kts 215°
2026-05-03 23:54 54.23862 10.92510 34811 ft 408 kts 215°
2026-05-03 23:54 54.21551 10.89791 34926 ft 409 kts 215°
2026-05-03 23:54 54.19202 10.87029 35061 ft 411 kts 215°
2026-05-03 23:54 54.16840 10.84254 35183 ft 413 kts 215°
2026-05-03 23:55 54.14475 10.81477 35317 ft 414 kts 215°
2026-05-03 23:55 54.12102 10.78692 35457 ft 415 kts 215°
2026-05-03 23:55 54.09720 10.75901 35630 ft 415 kts 215°
2026-05-03 23:55 54.07340 10.73114 35812 ft 415 kts 215°
2026-05-03 23:56 54.04956 10.70327 35955 ft 416 kts 215°
2026-05-03 23:56 54.02560 10.67531 36093 ft 417 kts 215°
2026-05-03 23:56 54.00168 10.64742 36248 ft 417 kts 215°
2026-05-03 23:56 53.97774 10.61956 36421 ft 417 kts 215°
2026-05-03 23:57 53.95379 10.59171 36571 ft 418 kts 216°
2026-05-03 23:57 53.92975 10.56381 36711 ft 418 kts 216°
2026-05-03 23:57 53.90572 10.53595 36859 ft 419 kts 216°
2026-05-03 23:57 53.88159 10.50802 36871 ft 421 kts 216°
2026-05-03 23:58 53.83322 10.45215 36887 ft 420 kts 215°
2026-05-03 23:58 53.78501 10.39664 36894 ft 418 kts 215°
2026-05-03 23:59 53.73692 10.34142 36892 ft 417 kts 215°
2026-05-03 23:59 53.68892 10.28645 36912 ft 417 kts 215°
2026-05-04 00:00 53.64093 10.23164 36907 ft 416 kts 215°
2026-05-04 00:00 53.59300 10.17706 36916 ft 416 kts 215°
2026-05-04 00:01 53.54536 10.12294 36908 ft 416 kts 215°
2026-05-04 00:01 53.49728 10.06850 36916 ft 417 kts 215°
2026-05-04 00:02 53.44917 10.01416 36909 ft 417 kts 215°
2026-05-04 00:02 53.40101 9.95991 36909 ft 417 kts 215°
2026-05-04 00:03 53.35279 9.90576 36913 ft 417 kts 215°
2026-05-04 00:03 53.30448 9.85165 36916 ft 418 kts 215°
2026-05-04 00:04 53.25608 9.79759 36922 ft 418 kts 214°
2026-05-04 00:04 53.20765 9.74365 36917 ft 419 kts 214°
2026-05-04 00:05 53.15919 9.68981 36923 ft 419 kts 214°
2026-05-04 00:05 53.11067 9.63605 36921 ft 419 kts 214°
2026-05-04 00:06 53.06210 9.58239 36924 ft 419 kts 214°
2026-05-04 00:06 53.01349 9.52883 36923 ft 419 kts 214°
2026-05-04 00:07 52.96516 9.47570 36922 ft 420 kts 214°
2026-05-04 00:07 52.91669 9.42174 36923 ft 420 kts 218°
2026-05-04 00:08 52.87302 9.35782 36923 ft 419 kts 223°
2026-05-04 00:08 52.82995 9.29260 36922 ft 419 kts 223°
2026-05-04 00:09 52.78679 9.22775 36923 ft 420 kts 222°
2026-05-04 00:09 52.74346 9.16310 36921 ft 420 kts 222°
2026-05-04 00:10 52.70000 9.09854 36926 ft 420 kts 222°
2026-05-04 00:10 52.65656 9.03421 36928 ft 420 kts 222°
2026-05-04 00:11 52.61311 8.97004 36924 ft 420 kts 222°
2026-05-04 00:11 52.56961 8.90597 36929 ft 420 kts 222°
2026-05-04 00:12 52.52611 8.84208 36928 ft 419 kts 222°
2026-05-04 00:12 52.48258 8.77831 36928 ft 419 kts 222°
2026-05-04 00:13 52.43934 8.71515 36931 ft 419 kts 222°
2026-05-04 00:13 52.39578 8.65170 36935 ft 419 kts 222°
2026-05-04 00:14 52.35217 8.58834 36937 ft 419 kts 221°
2026-05-04 00:14 52.30858 8.52518 36931 ft 419 kts 221°
2026-05-04 00:15 52.26492 8.46211 36940 ft 419 kts 221°
2026-05-04 00:15 52.22122 8.39915 36934 ft 419 kts 221°
2026-05-04 00:16 52.17752 8.33635 36943 ft 419 kts 221°
2026-05-04 00:16 52.13371 8.27357 36936 ft 419 kts 221°
2026-05-04 00:17 52.08998 8.21108 36947 ft 419 kts 221°
2026-05-04 00:17 52.04622 8.14871 36939 ft 418 kts 221°
2026-05-04 00:18 52.00246 8.08651 36942 ft 418 kts 221°
2026-05-04 00:18 51.95868 8.02445 36946 ft 418 kts 221°
2026-05-04 00:19 51.91486 7.96251 36946 ft 417 kts 221°
2026-05-04 00:19 51.87112 7.90083 36946 ft 417 kts 221°
2026-05-04 00:20 51.82734 7.83928 36947 ft 417 kts 221°
2026-05-04 00:20 51.78380 7.77821 36953 ft 417 kts 221°
2026-05-04 00:21 51.73994 7.71686 36960 ft 417 kts 221°
2026-05-04 00:21 51.69617 7.65580 36964 ft 417 kts 221°
2026-05-04 00:22 51.65233 7.59480 36968 ft 416 kts 221°
2026-05-04 00:22 51.60842 7.53388 36966 ft 416 kts 221°
2026-05-04 00:23 51.56457 7.47318 36965 ft 416 kts 221°
2026-05-04 00:23 51.52063 7.41251 36966 ft 416 kts 221°
2026-05-04 00:24 51.47675 7.35207 36967 ft 416 kts 221°
2026-05-04 00:24 51.43299 7.29147 36964 ft 416 kts 224°
2026-05-04 00:25 51.39601 7.22031 36974 ft 416 kts 233°
2026-05-04 00:25 51.36182 7.14567 36964 ft 416 kts 233°
2026-05-04 00:26 51.32738 7.07122 36965 ft 416 kts 232°
2026-05-04 00:26 51.29305 6.99766 36964 ft 416 kts 232°
2026-05-04 00:27 51.25838 6.92367 36965 ft 416 kts 232°
2026-05-04 00:27 51.22370 6.84987 36966 ft 416 kts 232°
2026-05-04 00:28 51.18868 6.77558 36400 ft 422 kts 232°
2026-05-04 00:28 51.17107 6.73828 35812 ft 420 kts 232°
2026-05-04 00:28 51.15356 6.70124 35172 ft 419 kts 233°
2026-05-04 00:29 51.13600 6.66414 34518 ft 419 kts 233°
2026-05-04 00:29 51.11846 6.62714 33843 ft 419 kts 233°
2026-05-04 00:29 51.10659 6.60214 33322 ft 419 kts 233°
2026-05-04 00:29 51.08888 6.56542 32619 ft 417 kts 231°
2026-05-04 00:30 51.06945 6.53260 32318 ft 407 kts 226°
2026-05-04 00:30 51.04947 6.50143 31878 ft 399 kts 226°
2026-05-04 00:30 51.02964 6.47044 31197 ft 399 kts 226°
2026-05-04 00:30 51.00981 6.43937 30461 ft 400 kts 226°
2026-05-04 00:31 50.99002 6.40828 29666 ft 401 kts 227°
2026-05-04 00:31 50.97022 6.37717 28836 ft 400 kts 226°
2026-05-04 00:31 50.95046 6.34610 28024 ft 400 kts 226°
2026-05-04 00:31 50.93071 6.31508 27193 ft 400 kts 226°
2026-05-04 00:32 50.91092 6.28403 26338 ft 401 kts 226°
2026-05-04 00:32 50.89111 6.25299 25679 ft 398 kts 226°
2026-05-04 00:32 50.87153 6.22236 25021 ft 394 kts 226°
2026-05-04 00:32 50.85201 6.19186 24412 ft 397 kts 226°
2026-05-04 00:33 50.83195 6.16052 23797 ft 413 kts 225°
2026-05-04 00:33 50.79103 6.09677 22355 ft 408 kts 225°
2026-05-04 00:33 50.77094 6.06553 21707 ft 402 kts 225°
2026-05-04 00:34 50.75117 6.03473 21076 ft 396 kts 226°
2026-05-04 00:34 50.73267 6.00244 20125 ft 399 kts 229°
2026-05-04 00:34 50.71478 5.96921 19409 ft 397 kts 229°
2026-05-04 00:34 50.69690 5.93624 18780 ft 393 kts 229°
2026-05-04 00:35 50.68049 5.90217 18127 ft 390 kts 240°
2026-05-04 00:35 50.67104 5.86219 17430 ft 391 kts 256°
2026-05-04 00:35 50.66877 5.81958 16747 ft 392 kts 269°
2026-05-04 00:35 50.67284 5.77709 16080 ft 395 kts 284°
2026-05-04 00:36 50.68355 5.73723 15477 ft 394 kts 292°
2026-05-04 00:36 50.69593 5.69883 14854 ft 392 kts 294°
2026-05-04 00:36 50.70855 5.66085 14252 ft 389 kts 294°
2026-05-04 00:36 50.72104 5.62321 13645 ft 386 kts 294°
2026-05-04 00:37 50.73335 5.58568 12987 ft 383 kts 294°
2026-05-04 00:37 50.74530 5.54885 12372 ft 380 kts 294°
2026-05-04 00:37 50.75722 5.51179 11775 ft 376 kts 294°
2026-05-04 00:37 50.76894 5.47515 11405 ft 367 kts 294°
2026-05-04 00:38 50.78021 5.43983 11257 ft 353 kts 293°
2026-05-04 00:38 50.79104 5.40580 11101 ft 341 kts 293°
2026-05-04 00:38 50.80150 5.37289 10960 ft 329 kts 293°
2026-05-04 00:38 50.81157 5.34109 10825 ft 318 kts 293°
2026-05-04 00:39 50.82131 5.31032 10692 ft 308 kts 293°
2026-05-04 00:39 50.83075 5.28046 10567 ft 299 kts 292°
2026-05-04 00:39 50.83989 5.25146 10441 ft 290 kts 292°
2026-05-04 00:39 50.84877 5.22334 10321 ft 281 kts 292°
2026-05-04 00:40 50.85738 5.19601 10205 ft 273 kts 292°
2026-05-04 00:40 50.86573 5.16950 10090 ft 265 kts 292°
2026-05-04 00:40 50.87384 5.14371 9977 ft 258 kts 292°
2026-05-04 00:40 50.88258 5.11913 9762 ft 257 kts 299°
2026-05-04 00:41 50.89279 5.09595 9483 ft 257 kts 302°
2026-05-04 00:41 50.90299 5.07381 9211 ft 256 kts 302°
2026-05-04 00:41 50.91346 5.05108 8941 ft 255 kts 302°
2026-05-04 00:41 50.92385 5.02839 8672 ft 254 kts 302°
2026-05-04 00:42 50.93400 5.00606 8415 ft 252 kts 302°
2026-05-04 00:42 50.94418 4.98353 8148 ft 251 kts 302°
2026-05-04 00:42 50.95430 4.96103 7887 ft 250 kts 302°
2026-05-04 00:42 50.96436 4.93860 7640 ft 249 kts 302°
2026-05-04 00:43 50.97435 4.91628 7383 ft 248 kts 302°
2026-05-04 00:43 50.98429 4.89401 7132 ft 247 kts 302°
2026-05-04 00:43 50.99418 4.87183 6871 ft 246 kts 302°
2026-05-04 00:43 51.00404 4.84967 6620 ft 245 kts 302°
2026-05-04 00:44 51.01387 4.82757 6366 ft 245 kts 302°
2026-05-04 00:44 51.02365 4.80556 6097 ft 244 kts 302°
2026-05-04 00:44 51.03341 4.78356 5833 ft 243 kts 302°
2026-05-04 00:44 51.04313 4.76164 5577 ft 242 kts 302°
2026-05-04 00:45 51.05281 4.73979 5320 ft 241 kts 302°
2026-05-04 00:45 51.06233 4.71829 5198 ft 234 kts 302°
2026-05-04 00:45 51.07163 4.69728 5001 ft 231 kts 302°
2026-05-04 00:45 51.08083 4.67646 4764 ft 230 kts 302°
2026-05-04 00:46 51.09001 4.65566 4512 ft 229 kts 302°
2026-05-04 00:46 51.09910 4.63506 4268 ft 227 kts 302°
2026-05-04 00:46 51.10695 4.61367 4035 ft 222 kts 282°
2026-05-04 00:46 51.10556 4.59054 3959 ft 208 kts 240°
2026-05-04 00:47 51.09486 4.57563 3831 ft 212 kts 201°
2026-05-04 00:47 51.08033 4.57020 3554 ft 216 kts 195°
2026-05-04 00:47 51.06614 4.56471 3275 ft 210 kts 197°
2026-05-04 00:47 51.05212 4.55898 2988 ft 206 kts 197°
2026-05-04 00:48 51.03844 4.55336 2713 ft 201 kts 197°
2026-05-04 00:48 51.02508 4.54790 2446 ft 196 kts 197°
2026-05-04 00:48 51.01219 4.54263 2186 ft 186 kts 198°
2026-05-04 00:48 51.00006 4.53768 1952 ft 174 kts 198°
2026-05-04 00:49 50.98887 4.53311 1738 ft 160 kts 198°
2026-05-04 00:49 50.97842 4.52883 1496 ft 151 kts 198°
2026-05-04 00:49 50.96832 4.52468 1305 ft 150 kts 198°
2026-05-04 00:49 50.95823 4.52055 1120 ft 151 kts 198°
2026-05-04 00:50 50.94806 4.51638 905 ft 151 kts 196°
2026-05-04 00:50 50.93787 4.51227 674 ft 153 kts 195°
2026-05-04 00:50 50.92746 4.50802 438 ft 153 kts 194°
2026-05-04 00:50 50.91714 4.50382 249 ft 152 kts 195°
2026-05-04 00:51 50.90703 4.49960 128 ft 147 kts 194°
2026-05-04 00:51 50.89775 4.49587 145 ft 120 kts 194°
2026-05-04 00:51 50.89268 4.49376 174 ft 15 kts 208°
2026-05-04 00:51 50.89244 4.49271 173 ft 8 kts 295°
2026-05-04 00:52 50.89287 4.49196 169 ft 11 kts 312°
2026-05-04 00:52 50.89344 4.49095 165 ft 13 kts 311°
2026-05-04 00:52 50.89423 4.49011 160 ft 15 kts
2026-05-04 00:52 50.89530 4.49053 156 ft 17 kts 16°
2026-05-04 00:53 50.89610 4.48987 151 ft 15 kts 334°
2026-05-04 00:53 50.89650 4.48959 148 ft 0 kts 336°